CST,Max TemperatureF,Mean TemperatureF,Min TemperatureF,Max Dew PointF,MeanDew PointF,Min DewpointF,Max Humidity, Mean Humidity, Min Humidity, Max Sea Level PressureIn, Mean Sea Level PressureIn, Min Sea Level PressureIn, Max VisibilityMiles, Mean VisibilityMiles, Min VisibilityMiles, Max Wind SpeedMPH, Mean Wind SpeedMPH, Max Gust SpeedMPH,PrecipitationIn, CloudCover, Events, WindDirDegrees
2012-12-1,66,55,43,56,51,43,100,78,56,29.94,29.85,29.77,10,5,0,12,5,15,0.00,6,Fog,182
2012-12-2,71,53,34,49,40,33,100,67,33,30.05,29.96,29.75,10,4,0,10,1,14,0.00,0,Fog,206
2012-12-3,69,56,42,56,46,34,84,58,32,30.10,29.82,29.61,10,10,9,25,9,31,0.00,0,,257
2012-12-4,63,45,26,32,26,21,92,57,21,30.33,30.27,30.13,10,9,2,13,2,16,0.00,0,,230
2012-12-5,63,43,22,32,24,21,88,54,20,30.33,30.20,29.99,10,7,2,18,6,27,0.00,0,,187
2012-12-6,55,48,40,43,38,28,76,65,54,29.96,29.91,29.85,10,10,10,13,6,17,0.00,6,,12
2012-12-7,48,39,29,40,35,29,92,77,62,29.99,29.92,29.88,10,8,2,9,3,14,0.02,6,Rain,337
2012-12-8,48,36,24,39,31,21,92,76,60,30.01,29.95,29.86,10,6,1,13,4,18,T,5,,112
2012-12-9,42,31,20,40,26,8,93,68,43,30.22,29.99,29.84,10,7,2,16,7,25,0.01,7,Rain,326
2012-12-10,32,19,6,9,5,1,80,53,26,30.22,30.12,30.01,10,10,10,13,5,20,0.00,1,,256
2012-12-11,47,30,12,19,13,7,84,58,31,30.14,30.10,30.04,10,10,6,13,3,18,0.00,0,,230
2012-12-12,55,36,16,18,15,13,77,49,20,30.15,30.09,30.03,10,10,10,28,13,35,0.00,0,,199
2012-12-13,58,42,26,23,20,15,75,50,24,30.11,30.06,30.03,10,10,10,16,7,23,0.00,0,,203
2012-12-14,57,40,23,43,34,19,85,63,41,30.04,29.81,29.48,10,10,6,26,9,38,0.07,5,Rain-Thunderstorm,169
2012-12-15,50,40,30,45,40,28,100,86,71,29.75,29.62,29.42,10,8,2,26,8,35,0.00,4,,242
2012-12-16,37,31,24,32,29,24,96,86,76,29.84,29.77,29.71,6,3,0,8,2,12,0.00,6,Fog,350
2012-12-17,51,38,24,32,28,23,92,67,41,29.83,29.76,29.60,10,6,0,18,4,24,0.00,3,Fog,237
2012-12-18,59,45,30,32,29,26,85,58,31,29.86,29.74,29.58,10,10,10,18,6,24,0.00,0,,244
2012-12-19,43,39,34,36,33,30,92,80,67,29.85,29.66,29.56,10,7,2,24,11,31,0.03,6,Rain-Snow,43
2012-12-20,35,26,17,30,20,13,96,72,47,30.33,30.00,29.58,10,6,0,24,10,41,0.12,2,Fog-Snow,320
2012-12-21,38,22,6,24,16,5,92,72,52,30.39,30.32,30.22,10,10,10,8,2,9,0.00,0,,108
2012-12-22,48,30,12,27,20,11,92,65,37,30.20,30.05,29.96,10,10,8,12,2,14,0.00,0,,232
2012-12-23,31,24,17,23,18,14,92,78,63,30.07,30.02,29.97,8,6,2,10,4,14,0.00,1,,1
2012-12-24,26,20,13,13,11,8,88,74,59,30.19,30.15,30.07,10,9,6,18,8,24,0.00,0,,24
2012-12-25,20,16,11,12,8,5,74,63,51,30.40,30.33,30.20,10,10,10,23,13,32,0.00,5,,22
2012-12-26,25,15,5,10,7,2,88,72,55,30.39,30.28,30.16,10,10,10,8,3,12,0.00,0,,24
2012-12-27,34,24,14,25,19,10,80,71,61,30.16,30.01,29.90,10,10,9,16,5,23,0.00,6,,123
2012-12-28,30,24,17,23,17,11,81,67,53,30.19,30.07,29.98,10,9,5,10,5,16,0.00,6,,318
2012-12-29,41,24,7,21,13,3,88,68,48,30.35,30.29,30.15,10,10,6,15,4,18,0.00,1,,254
2012-12-30,49,30,11,22,18,7,92,62,31,30.33,30.19,30.10,10,10,10,28,10,39,0.00,0,,215
2012-12-31,39,31,22,25,22,18,88,66,44,30.25,30.13,30.04,10,3,0,16,8,20,0.14,8,Fog-Snow,39